User: anonymous   Login
Location: Starry Hill Observatory
(46.8582°N, 122.3590°W)
Time: 13:01:55
(UTC-07:00)
Language:

Cosmos 1300 Rocket - Orbit

View from above orbital plane
View from above orbital plane
View from above satellite
View from above satellite

Ground track
Ground track

The orbit data is extracted from the following two-line orbital elements,

1 12786U 81082B   14304.05653298  .00000499  00000-0  56648-4 0   292
2 12786 082.4872 152.4332 0018092 178.9945 181.1310 14.84223521792364
Epoch (UTC): 31 October 2014 01:21:24
Eccentricity: 0.0018092
inclination: 82.4872°
perigee height: 603 km
apogee height: 628 km
right ascension of ascending node: 152.4332°
argument of perigee: 178.9945°
revolutions per day: 14.84223521
mean anomaly at epoch: 181.1310°
orbit number at epoch: 79236

The dashed part of the orbit path shows where the satellite is in the earth's shadow,  

DLR